Wetbulb
53.98 54.16 54.38 54.35 54.51 54.50 54.58 54.66 54.96 55.19 55.61 55.78 55.87 55.81 55.61 55.46 55.12 56.47 52.31 54.01 56.05 60.91 59.65 54.14 55.07 55.08 59.75 58.20 60.65 60.52 53.01 50.48 51.59 51.37 51.73 54.83 53.73 55.94 59.15 58.04 59.30 62.11 62.93 64.57 67.62
53.82 54.09 54.21 54.16 54.17 54.22 54.42 54.64 55.15 55.38 55.68 55.80 55.77 55.58 55.54 55.13 55.17 52.29 56.81 57.06 58.22 60.23 54.58 52.18 51.64 53.17 55.47 56.55 58.43 56.69 53.08 52.35 55.08 54.91 53.32 54.28 54.52 55.17 55.44 56.40 58.13 61.75 63.90 64.19 66.34
53.42 53.67 53.89 53.92 54.06 54.17 54.47 54.73 55.25 55.62 55.67 55.60 55.55 55.40 55.30 55.19 52.80 53.20 58.23 57.31 58.88 59.00 55.25 53.68 53.91 52.45 50.94 55.49 55.38 55.79 53.08 55.96 56.07 56.68 56.66 54.98 54.04 56.06 54.84 54.75 58.52 59.86 62.74 63.85 64.04
53.39 53.59 53.63 53.68 53.96 54.01 54.30 54.72 55.20 55.72 55.68 55.69 55.29 55.29 55.13 55.91 43.91 53.99 57.05 57.69 58.66 57.91 53.57 54.19 52.88 50.60 48.28 48.96 55.25 52.83 55.10 56.19 57.08 57.46 57.37 55.13 55.08 54.03 55.39 56.61 59.05 61.12 63.86 63.56 63.18
53.21 53.24 53.24 53.22 53.47 53.69 54.18 54.53 55.02 55.33 55.32 55.39 55.94 55.07 55.61 51.69 49.33 55.58 56.92 59.19 57.36 54.03 51.13 50.13 50.04 51.14 48.49 49.48 50.92 51.36 53.85 55.42 56.37 57.03 57.56 58.08 55.47 54.41 55.18 57.88 59.42 59.33 62.18 62.96 63.26
52.78 52.85 53.07 53.21 53.32 53.56 53.99 54.37 54.72 54.68 55.21 55.75 56.56 54.81 54.80 47.15 54.03 55.69 55.63 55.38 55.38 53.80 52.22 51.20 48.77 51.59 50.26 50.19 49.71 51.65 52.26 52.72 54.28 55.11 56.09 55.77 56.03 56.52 57.44 59.01 58.67 58.92 58.59 60.62 62.26
53.07 52.54 52.71 52.85 52.93 53.20 53.78 54.31 54.45 54.41 55.27 56.60 56.31 56.43 53.90 48.34 54.95 55.88 55.67 54.47 55.11 53.73 51.01 52.88 52.00 48.98 50.45 49.28 52.23 51.25 48.45 50.14 51.76 53.52 53.21 56.03 53.02 54.00 58.34 59.22 58.88 59.19 59.97 60.93 62.44
53.06 52.79 52.27 52.31 52.73 53.01 53.57 54.02 53.88 54.85 56.08 57.08 55.75 56.94 49.95 53.42 55.46 53.31 54.43 53.31 54.41 54.69 53.70 53.88 53.48 50.03 48.00 49.02 47.88 47.30 48.61 44.96 49.82 51.31 52.76 52.17 48.45 54.91 57.98 58.46 58.39 59.42 60.23 60.93 62.36
52.81 52.47 52.01 52.20 52.43 52.89 53.24 53.45 54.64 55.97 56.24 56.04 56.04 55.30 48.75 54.88 50.56 52.82 53.51 50.56 51.62 52.73 53.02 53.21 52.09 48.76 48.20 43.91 41.90 44.05 41.61 44.70 46.33 50.91 50.55 49.73 48.92 53.75 56.74 57.61 57.77 59.21 60.04 60.60 61.60
52.72 52.35 52.16 51.82 52.37 52.80 52.91 52.53 56.10 55.40 56.49 57.49 55.86 50.19 50.83 47.30 51.14 51.81 53.34 52.30 49.93 50.44 49.75 49.32 48.94 45.95 45.97 43.32 37.09 40.13 41.36 43.42 44.09 48.34 49.74 48.50 49.34 52.45 54.77 55.62 56.90 57.89 59.03 59.77 60.71
52.47 52.45 52.18 52.18 52.20 52.56 53.23 56.32 52.80 52.18 53.02 48.20 48.28 47.07 47.79 51.38 52.61 50.49 51.87 50.12 50.28 48.90 44.51 47.37 43.35 41.94 44.30 45.44 44.98 43.83 42.25 41.61 45.06 48.59 48.29 47.70 48.76 51.06 53.55 54.11 54.36 56.53 58.14 59.84 60.58
52.49 51.85 51.87 51.59 52.01 52.37 54.02 51.42 50.58 51.83 45.42 50.63 49.38 48.49 50.02 51.02 46.31 48.64 51.18 46.57 46.01 42.81 45.37 43.89 40.94 44.81 45.21 44.74 43.34 42.43 40.75 41.18 44.25 46.45 47.31 47.91 47.52 50.40 52.39 53.70 54.69 55.44 56.65 58.11 59.45
51.60 52.08 51.60 51.78 52.06 53.02 53.40 52.06 55.66 54.87 46.77 47.05 48.45 47.95 48.32 49.29 46.08 46.85 48.93 46.92 44.09 42.20 42.73 40.68 42.55 44.98 43.40 42.15 40.97 41.56 40.20 40.35 40.75 44.63 46.81 46.31 45.06 47.67 51.51 53.05 54.18 55.61 56.63 57.69 58.53
52.13 51.62 51.77 51.27 50.11 55.83 53.04 55.19 56.26 55.26 42.74 42.93 45.01 47.54 48.27 48.79 45.45 49.42 49.77 46.77 44.66 41.67 42.32 41.67 44.13 42.59 41.71 40.41 41.80 38.33 43.66 42.28 40.93 39.97 36.62 45.19 38.12 45.92 49.08 50.43 52.69 54.25 55.79 56.63 57.81
52.11 51.92 51.26 49.56 55.00 53.62 53.99 56.91 56.16 53.67 33.85 42.97 44.61 51.04 48.79 45.79 46.42 46.16 49.13 46.89 42.13 42.03 42.20 39.66 41.07 40.98 40.33 41.27 43.63 40.64 43.80 42.25 41.88 39.75 39.46 40.03 38.85 43.26 48.49 48.16 50.43 53.13 54.58 55.85 57.09
51.90 51.49 50.63 51.78 55.90 55.29 56.83 56.51 53.68 41.71 31.86 40.37 44.49 43.64 44.36 45.93 45.40 46.55 46.19 48.18 47.14 43.08 43.82 42.82 46.48 44.76 43.17 44.32 45.03 44.75 42.28 42.23 41.56 39.54 33.30 38.40 38.90 40.27 44.44 47.50 50.30 52.93 54.37 55.56 56.50
51.86 50.82 51.79 56.30 54.41 56.87 56.96 52.30 41.12 35.92 42.78 39.87 40.84 43.83 43.29 42.58 42.32 42.64 42.31 41.73 40.03 36.65 37.15 40.84 41.79 42.68 45.24 41.47 45.12 43.07 38.66 31.46 29.83 31.79 31.20 39.94 37.80 41.20 47.12 49.73 51.02 51.58 53.38 55.23 56.25
50.95 49.58 52.77 56.66 58.70 57.29 54.51 46.22 32.45 38.97 39.27 43.83 42.87 43.12 40.57 41.60 41.58 41.72 41.40 39.78 42.24 40.79 38.14 34.50 32.43 40.31 43.68 41.66 39.65 39.23 39.53 31.91 24.14 27.63 31.36 39.62 35.34 39.69 48.77 51.20 52.49 52.75 53.30 54.69 55.38
49.58 55.92 56.00 57.88 58.37 55.99 48.62 39.64 39.45 40.14 40.83 40.29 42.09 39.82 39.64 40.98 41.18 41.46 40.77 39.49 41.33 42.34 35.98 34.55 34.39 42.70 44.01 44.58 43.51 40.18 37.85 41.38 33.17 35.58 30.63 34.66 39.37 45.31 47.22 49.01 50.69 51.68 53.21 54.09 56.46
50.73 53.22 55.00 56.87 58.06 53.05 45.72 39.54 40.82 42.61 42.42 42.42 37.68 39.76 37.13 39.49 39.34 40.05 39.37 41.55 39.88 43.02 43.85 39.67 32.96 40.61 42.65 44.79 44.74 42.40 43.48 34.14 35.97 26.98 25.61 33.62 37.06 38.13 43.38 45.64 49.56 50.98 52.46 54.32 56.04
52.13 48.50 53.87 57.98 55.56 48.62 41.11 41.25 41.20 43.56 43.17 40.77 40.23 39.11 39.72 38.83 39.86 38.99 39.13 41.90 43.14 42.30 43.94 41.80 38.26 37.26 40.89 39.53 38.77 39.58 38.52 37.92 38.04 35.25 29.08 27.75 34.46 44.79 46.45 47.10 48.92 51.19 53.02 54.04 57.75
50.53 45.22 55.00 54.69 45.56 47.27 42.24 40.81 40.82 42.41 45.05 42.86 43.80 41.33 38.98 39.52 38.17 38.62 38.03 40.72 44.89 43.80 38.49 42.40 38.42 33.70 36.24 42.61 44.75 43.08 40.23 38.81 31.36 29.82 36.12 34.28 34.26 47.01 46.10 51.45 50.42 52.39 52.58 54.53 55.94
46.73 47.31 54.59 52.62 41.59 42.47 44.66 42.53 42.00 41.72 43.12 41.83 40.13 41.80 42.60 39.01 35.54 39.80 40.26 44.41 44.64 43.24 39.16 41.77 36.71 30.81 33.87 38.50 40.66 37.83 40.62 40.10 40.00 37.86 33.80 29.25 32.30 46.52 49.28 51.05 51.83 51.73 52.75 53.85 55.05
47.18 42.96 48.16 50.46 47.10 41.51 41.19 41.72 39.59 43.20 42.23 43.29 41.70 42.81 40.98 39.56 41.35 38.53 39.19 42.28 44.24 43.60 44.21 43.18 38.31 32.98 30.17 33.68 35.42 33.13 37.20 40.10 39.03 34.31 35.10 34.57 36.55 39.04 41.30 45.38 50.06 51.25 52.97 52.79 54.00
48.48 45.13 45.08 41.27 42.44 42.42 42.88 42.39 39.30 39.05 42.73 43.84 40.60 39.78 38.28 35.60 38.45 36.79 40.55 41.24 43.10 44.43 43.87 39.96 34.87 37.26 38.29 39.33 38.53 38.06 38.21 38.44 37.21 38.35 35.14 37.29 37.07 40.50 42.96 45.32 48.45 51.06 51.66 51.18 52.94
44.29 43.31 45.11 42.04 44.51 41.95 40.07 40.63 39.40 40.05 40.99 39.46 39.32 40.30 38.65 36.74 37.39 35.56 38.48 38.75 38.25 43.38 41.66 41.70 34.61 37.70 35.63 39.05 39.19 37.57 39.51 39.55 39.39 39.51 39.31 39.13 38.66 43.87 46.01 47.89 48.20 49.33 49.80 50.34 52.54
45.74 45.12 41.23 40.88 42.22 41.30 40.62 38.88 38.74 39.06 40.70 42.83 41.75 39.69 39.97 41.93 44.41 44.97 44.35 44.35 42.57 39.59 38.99 36.99 35.86 34.32 30.56 37.82 38.24 34.11 38.66 39.39 39.77 41.70 40.68 37.47 41.68 45.52 45.63 47.00 48.71 49.95 50.29 50.61 51.94
MSLP
1021.36 1020.94 1020.51 1020.10 1019.72 1019.32 1018.92 1018.53 1018.13 1017.68 1017.20 1016.77 1016.28 1015.93 1015.63 1015.22 1014.40 1012.45 1011.63 1012.37 1011.82 1012.15 1011.99 1010.41 1009.13 1008.36 1007.85 1006.70 1005.84 1005.37 1004.18 1002.20 1001.06 1000.18 999.50 999.39 998.96 998.51 998.05 998.09 997.86 997.97 998.08 998.19 997.75
1021.50 1021.06 1020.63 1020.18 1019.71 1019.23 1018.77 1018.30 1017.88 1017.48 1016.98 1016.48 1016.11 1015.71 1015.34 1014.98 1013.51 1011.04 1012.10 1012.21 1012.30 1012.01 1010.64 1009.10 1008.00 1007.47 1006.64 1005.95 1005.18 1004.39 1002.81 1001.53 1000.96 1000.19 999.46 999.38 999.41 998.92 998.01 997.78 997.74 997.52 997.85 998.74 998.24
1021.48 1021.03 1020.59 1020.15 1019.65 1019.19 1018.67 1018.12 1017.60 1017.21 1016.82 1016.35 1015.95 1015.49 1015.00 1014.60 1011.73 1010.42 1012.28 1012.73 1012.38 1011.86 1010.10 1008.91 1008.35 1007.05 1005.98 1005.25 1004.52 1003.80 1001.61 1001.38 1000.34 1000.29 1000.06 999.62 999.80 999.44 998.29 997.42 997.27 997.21 997.61 998.56 998.31
1021.39 1020.92 1020.51 1020.01 1019.45 1018.93 1018.43 1017.95 1017.48 1016.98 1016.60 1016.18 1015.77 1015.35 1014.66 1013.59 1010.44 1010.97 1012.28 1012.19 1011.68 1011.01 1009.48 1008.40 1007.58 1006.92 1005.75 1004.12 1003.61 1002.87 1002.09 1001.59 1000.81 1000.35 999.86 999.98 1000.57 999.89 999.14 997.70 997.42 996.91 997.15 997.67 998.71
1021.34 1020.88 1020.41 1019.92 1019.41 1018.86 1018.31 1017.77 1017.23 1016.74 1016.29 1015.84 1015.61 1015.24 1014.24 1011.34 1010.39 1011.07 1011.62 1011.23 1010.45 1009.70 1008.68 1007.96 1007.18 1006.24 1004.78 1004.01 1003.43 1001.80 1001.42 1001.16 1000.96 1000.71 1000.46 1000.03 999.81 1000.04 999.43 998.71 997.84 997.51 997.09 997.93 998.76
1021.26 1020.73 1020.22 1019.68 1019.15 1018.64 1018.23 1017.81 1017.26 1016.72 1016.14 1015.50 1015.25 1015.10 1013.41 1010.19 1010.60 1010.44 1010.40 1010.13 1009.49 1009.18 1008.58 1008.26 1007.27 1006.41 1005.19 1003.82 1002.78 1001.99 1001.13 1000.75 1000.49 1000.03 1000.17 999.88 999.50 1000.04 998.65 999.07 998.43 997.92 997.60 997.75 998.10
1021.18 1020.63 1020.03 1019.43 1018.87 1018.30 1017.73 1017.24 1016.86 1016.44 1015.95 1015.41 1015.08 1014.33 1011.39 1010.56 1010.40 1009.99 1009.49 1009.41 1009.52 1009.38 1008.73 1008.04 1007.79 1007.24 1005.75 1004.64 1003.80 1002.85 1001.88 1001.05 999.77 999.51 999.45 999.81 998.92 998.38 998.59 998.76 998.22 998.14 998.14 998.25 998.20
1021.03 1020.53 1019.93 1019.30 1018.67 1018.03 1017.43 1016.88 1016.27 1015.64 1015.40 1015.22 1015.10 1013.58 1010.34 1010.44 1010.10 1009.44 1009.31 1008.99 1008.73 1008.84 1008.98 1008.84 1008.35 1007.54 1006.37 1005.45 1004.17 1003.08 1001.91 1000.08 998.36 999.89 999.13 999.88 997.59 997.16 998.07 998.02 997.73 997.67 997.53 997.46 997.64
1020.75 1020.20 1019.59 1018.93 1018.29 1017.59 1016.96 1016.33 1015.79 1015.29 1015.15 1015.16 1014.63 1012.60 1009.53 1010.36 1009.82 1009.78 1009.28 1008.98 1008.78 1008.28 1008.13 1008.42 1008.23 1007.07 1006.18 1005.06 1003.82 1002.47 1000.37 999.55 998.69 998.60 998.80 999.19 997.23 996.68 997.30 996.98 996.75 996.79 996.68 996.57 996.64
1020.52 1019.91 1019.35 1018.71 1018.00 1017.26 1016.42 1015.72 1015.24 1015.37 1014.87 1014.00 1012.59 1011.71 1009.65 1009.62 1009.80 1009.59 1009.03 1008.84 1008.57 1008.20 1007.54 1007.12 1006.77 1006.06 1004.99 1004.14 1002.02 1001.15 1000.47 999.52 998.38 997.91 997.27 997.27 996.10 996.15 996.67 996.53 996.29 996.34 995.97 995.72 995.55
1020.27 1019.67 1019.07 1018.42 1017.72 1017.03 1016.08 1014.14 1014.44 1013.68 1012.13 1011.06 1010.60 1010.28 1009.67 1010.02 1009.67 1008.92 1008.60 1008.65 1007.91 1007.78 1006.67 1006.05 1005.73 1004.48 1003.76 1003.25 1002.62 1002.14 1001.28 999.64 998.26 997.44 997.03 996.63 995.33 994.63 995.37 995.77 995.66 995.35 994.83 995.05 995.24
1020.21 1019.41 1018.73 1018.16 1017.49 1016.72 1015.98 1013.31 1013.64 1013.51 1011.95 1010.49 1010.42 1010.29 1010.26 1010.21 1009.46 1008.64 1008.87 1008.54 1007.86 1007.10 1006.55 1005.89 1004.75 1004.50 1004.50 1004.33 1003.75 1003.00 1002.07 1000.44 999.85 999.04 998.22 996.93 995.73 995.05 994.82 994.23 994.59 994.74 994.73 994.64 994.76
1019.99 1019.20 1018.41 1017.76 1017.28 1016.26 1013.96 1013.67 1013.48 1013.23 1011.79 1009.81 1009.89 1009.59 1009.41 1009.73 1008.88 1008.62 1008.83 1008.36 1007.70 1007.03 1006.43 1005.79 1005.26 1005.12 1004.89 1004.50 1004.07 1003.25 1002.61 1001.81 1000.90 1000.27 999.47 998.17 996.54 995.92 995.01 994.37 994.31 994.08 994.10 994.16 994.16
1019.69 1018.88 1018.07 1017.39 1017.27 1013.93 1013.18 1013.69 1013.30 1013.39 1010.87 1009.47 1009.26 1009.04 1009.30 1009.04 1008.33 1008.81 1008.52 1008.51 1007.98 1007.14 1006.77 1006.13 1005.67 1005.31 1005.12 1004.37 1004.10 1003.04 1002.94 1002.43 1001.86 1001.34 999.59 998.97 995.99 995.01 994.75 994.17 993.91 993.64 993.45 993.60 993.92
1019.01 1018.26 1017.64 1017.51 1015.13 1013.17 1013.77 1013.53 1013.45 1013.27 1009.81 1009.33 1008.59 1009.17 1008.99 1008.81 1008.34 1007.99 1008.44 1008.39 1007.73 1007.28 1007.18 1005.93 1005.52 1005.02 1004.46 1004.02 1003.97 1003.05 1003.10 1002.67 1002.05 1001.38 1000.43 999.13 996.88 994.19 994.19 993.08 992.84 992.66 992.87 993.00 993.16
1018.72 1017.86 1017.33 1016.53 1014.94 1013.87 1013.67 1013.79 1013.50 1011.52 1008.89 1008.52 1008.68 1008.43 1007.99 1007.74 1007.62 1007.67 1007.67 1007.49 1007.07 1006.60 1006.04 1005.44 1006.16 1005.48 1005.12 1005.23 1004.33 1003.78 1003.42 1002.81 1002.13 1001.29 999.59 998.68 997.18 994.23 993.64 992.86 992.27 991.82 991.88 991.98 992.11
1018.40 1017.74 1017.21 1014.94 1013.64 1013.94 1013.79 1013.06 1011.53 1009.47 1009.27 1008.34 1008.37 1008.29 1007.97 1007.27 1007.54 1007.46 1007.27 1006.51 1005.84 1006.08 1005.71 1005.63 1005.10 1006.63 1006.60 1005.55 1004.53 1004.18 1003.73 1002.70 1001.54 1000.40 998.50 998.42 996.90 994.48 993.58 992.83 992.21 991.69 991.40 991.32 991.26
1017.87 1017.49 1016.04 1014.62 1014.20 1014.20 1013.64 1012.06 1010.80 1009.08 1008.89 1009.17 1009.04 1008.51 1007.31 1007.89 1007.47 1007.48 1006.95 1005.93 1005.87 1006.33 1006.03 1006.07 1005.93 1005.52 1005.28 1005.70 1004.75 1004.43 1003.08 1002.15 1001.34 1000.09 998.89 998.35 995.60 994.24 993.45 992.52 991.62 991.61 991.86 991.49 991.64
1017.13 1015.76 1014.55 1014.29 1014.53 1014.17 1013.11 1010.81 1009.17 1009.46 1010.06 1010.00 1009.47 1007.96 1007.30 1007.36 1007.41 1006.97 1006.23 1006.50 1006.79 1006.89 1007.20 1007.08 1006.28 1006.01 1004.62 1004.87 1005.11 1003.25 1002.47 1002.38 1002.22 1001.58 1000.25 999.65 997.12 994.68 993.44 992.47 992.42 992.01 991.42 991.40 991.52
1017.43 1014.82 1013.30 1014.39 1014.27 1013.81 1012.31 1010.81 1010.15 1010.59 1010.89 1010.69 1009.85 1009.06 1008.39 1007.93 1007.65 1006.93 1006.79 1006.73 1007.19 1007.18 1007.43 1007.31 1006.47 1006.04 1004.58 1004.87 1003.69 1003.59 1002.90 1003.30 1002.52 1001.93 1000.09 997.94 995.31 993.15 992.34 992.30 991.77 991.38 991.26 991.74 992.00
1016.70 1014.18 1014.04 1014.13 1013.99 1012.91 1011.62 1010.32 1010.78 1011.07 1011.55 1011.24 1010.40 1010.09 1009.51 1008.96 1008.60 1007.98 1007.38 1007.05 1007.48 1007.41 1007.71 1007.32 1007.08 1005.91 1004.82 1003.45 1003.31 1003.28 1002.40 1003.55 1003.53 1003.03 1000.36 998.63 995.89 993.94 991.52 991.63 991.70 991.29 992.02 992.04 991.80
1016.23 1013.46 1013.89 1014.02 1013.24 1012.93 1011.59 1011.82 1012.23 1011.51 1011.58 1011.60 1011.19 1011.06 1010.67 1010.28 1009.81 1008.85 1008.08 1007.77 1008.31 1008.30 1008.40 1008.20 1008.20 1006.44 1004.49 1002.79 1002.85 1002.49 1002.35 1002.81 1003.49 1002.64 1000.85 999.14 996.82 995.02 994.06 989.23 991.75 992.11 992.90 992.56 992.01
1016.32 1014.27 1013.63 1013.67 1012.90 1012.58 1011.97 1011.77 1011.69 1011.95 1011.52 1011.47 1011.72 1011.53 1011.56 1011.07 1010.57 1009.46 1008.78 1008.70 1008.95 1009.07 1009.57 1009.87 1008.47 1007.00 1004.43 1002.90 1004.69 1004.37 1003.22 1002.58 1002.65 1002.96 1000.89 1000.52 998.90 996.88 994.72 992.46 992.78 993.19 993.40 992.91 992.23
1016.94 1014.07 1012.81 1013.13 1013.69 1013.71 1012.79 1012.19 1011.86 1012.05 1012.22 1012.08 1012.28 1012.05 1011.48 1010.97 1010.44 1009.87 1009.06 1008.96 1009.54 1009.59 1010.24 1010.48 1009.26 1008.10 1006.16 1004.32 1004.65 1004.86 1003.34 1002.43 1001.62 1000.70 998.77 998.58 998.53 998.93 997.41 996.29 993.46 993.17 993.83 993.88 992.73
1017.16 1015.54 1016.08 1013.95 1013.84 1014.11 1013.81 1013.06 1012.48 1012.06 1012.13 1012.19 1012.11 1012.24 1012.21 1011.61 1010.36 1009.66 1009.19 1008.95 1009.19 1009.09 1009.17 1010.19 1009.29 1007.95 1005.95 1004.42 1003.63 1002.43 1001.28 1000.79 1000.37 999.57 998.28 997.50 997.89 997.66 998.40 997.21 995.19 993.74 993.96 993.74 992.69
1018.33 1017.82 1017.09 1016.12 1014.96 1014.41 1013.70 1013.29 1013.00 1012.82 1012.80 1012.66 1012.30 1011.95 1012.31 1011.47 1010.63 1009.53 1009.47 1009.54 1009.65 1009.11 1009.12 1009.70 1009.03 1007.86 1005.85 1004.23 1002.96 1001.48 1000.39 999.93 999.63 998.85 996.70 997.26 996.65 996.67 996.58 995.87 994.97 994.32 994.07 993.73 993.03
1021.09 1020.73 1019.82 1017.22 1015.26 1014.40 1014.00 1014.39 1014.42 1014.80 1014.04 1013.14 1012.73 1012.17 1011.37 1010.27 1009.69 1009.07 1008.86 1008.64 1008.63 1009.13 1009.60 1010.14 1009.57 1008.33 1005.74 1003.73 1001.84 1000.40 999.32 998.81 998.64 998.16 996.78 995.78 995.65 995.50 994.78 994.43 994.03 993.75 993.72 993.53 993.36
Wind_Speed
16 17 17 17 17 17 17 17 16 16 16 16 16 16 16 17 21 20 10 8 10 12 14 15 15 15 16 21 23 18 17 19 24 23 17 11 16 17 16 19 19 10 17 7 9
16 16 16 17 17 17 18 17 17 17 17 17 17 17 16 16 18 13 10 6 8 13 13 11 14 15 15 17 20 22 18 28 22 20 13 13 16 20 18 16 19 14 5 2 7
16 17 17 17 18 18 18 18 18 18 17 17 16 16 17 15 12 8 8 4 11 15 15 9 13 18 22 21 22 25 28 26 23 23 20 16 19 18 23 19 18 19 17 12 3
17 17 18 18 19 19 19 18 18 18 17 16 15 15 16 15 2 10 3 7 11 13 12 11 12 19 24 26 25 29 32 29 28 27 23 17 18 23 25 22 18 19 17 19 9
17 17 18 18 18 19 19 19 19 19 19 16 13 12 13 8 9 9 7 11 13 9 7 10 13 16 24 23 25 33 29 28 28 25 25 26 21 24 26 25 23 21 15 11 14
18 18 18 18 19 19 18 16 16 17 17 18 13 12 10 0 3 2 6 7 7 10 9 8 11 15 21 23 27 25 27 31 30 28 28 28 28 22 28 23 25 22 24 19 20
17 18 19 19 20 20 19 18 16 17 15 14 10 11 14 8 4 5 6 5 4 7 9 11 10 15 11 17 25 25 28 29 29 26 32 29 29 32 28 27 24 25 24 22 24
17 17 18 19 19 19 19 19 19 16 12 9 7 12 3 2 7 5 8 8 2 6 10 11 12 16 19 19 25 23 21 26 33 27 29 23 34 38 29 28 28 28 26 25 24
19 19 21 21 20 20 20 20 17 6 6 7 9 12 4 7 3 10 9 8 12 10 7 8 13 14 14 17 18 21 25 28 29 29 29 29 35 31 31 29 29 28 28 25 27
20 20 20 21 21 21 22 22 5 7 10 11 10 9 6 6 9 11 7 11 11 12 14 13 12 14 14 13 20 20 26 29 30 28 26 31 36 32 28 27 29 29 27 24 25
23 21 20 20 21 20 18 7 8 10 13 12 10 8 6 9 10 11 7 7 11 11 14 10 12 14 16 17 20 22 25 31 30 24 25 30 31 32 30 28 28 26 22 29 29
23 24 23 21 20 21 13 6 6 7 10 11 9 7 6 6 10 9 3 14 14 14 15 14 16 15 15 18 23 22 25 28 26 28 27 24 27 30 29 27 27 27 28 27 22
24 22 22 20 17 12 6 6 6 7 8 4 4 8 5 7 11 13 8 14 13 16 13 15 17 19 19 20 20 20 22 23 27 23 26 28 29 31 29 29 27 27 27 27 26
23 23 19 16 8 2 3 4 8 4 8 11 8 4 8 8 12 5 11 8 12 16 16 15 16 16 15 19 18 22 20 21 21 21 23 25 24 29 25 29 27 27 23 21 22
25 23 15 8 10 3 7 8 8 6 6 5 5 6 7 9 9 4 2 11 15 17 17 17 19 20 22 22 21 22 19 23 23 22 25 29 24 22 25 26 26 25 27 29 29
25 22 10 7 7 6 7 6 7 9 1 5 1 6 11 11 7 9 11 12 18 17 18 17 14 22 15 18 26 21 21 25 24 20 22 27 27 25 24 25 22 18 20 19 22
26 18 9 8 5 5 7 8 8 8 7 3 6 11 14 11 10 4 12 12 10 10 15 16 14 4 5 14 17 24 21 15 18 19 19 23 29 21 23 26 27 15 17 23 11
27 15 8 5 5 6 8 11 5 4 6 9 10 17 13 7 7 7 11 13 5 7 13 9 16 11 2 11 19 16 22 14 18 16 19 15 23 25 25 26 10 10 21 12 12
31 7 7 4 4 6 10 8 5 11 7 10 14 9 8 4 6 13 9 8 8 9 10 13 12 24 19 8 16 19 16 19 18 24 17 15 25 27 30 23 20 18 15 13 5
9 7 2 1 5 7 10 10 9 2 8 8 14 4 12 14 14 11 10 2 6 11 7 15 21 17 13 9 13 15 11 10 13 21 22 20 18 18 31 29 20 17 4 2 7
6 6 7 2 5 8 7 9 8 6 8 7 11 15 15 15 15 15 16 13 7 10 16 19 16 18 20 14 16 12 16 8 10 15 13 16 13 15 16 30 21 8 5 4 7
6 5 5 3 6 3 7 7 5 9 4 7 10 12 12 12 15 16 18 13 12 12 17 19 8 15 21 23 12 17 15 11 5 10 19 15 17 21 32 29 27 11 3 8 11
8 6 5 4 3 7 10 11 5 9 10 4 7 11 14 15 11 13 16 14 13 16 5 9 7 11 15 7 11 12 20 10 7 11 21 12 11 20 9 16 12 7 6 14 13
6 5 4 1 2 6 11 10 8 1 9 7 9 15 14 15 14 11 18 12 12 13 13 11 15 16 16 22 7 10 17 15 15 13 19 16 19 3 26 24 6 6 8 12 15
3 5 6 5 7 11 11 14 10 11 3 8 7 8 11 13 19 20 18 21 20 18 14 4 9 19 21 22 19 23 20 15 18 20 22 21 19 14 12 20 29 16 10 14 14
7 6 9 11 9 8 3 10 10 9 13 15 17 15 11 18 15 25 22 20 12 13 8 4 8 15 21 21 21 22 21 18 19 21 27 24 23 17 16 19 18 18 16 14 13
5 4 6 8 8 8 5 7 10 11 11 10 18 17 19 19 18 20 20 22 21 12 13 6 7 12 18 20 17 18 19 18 18 21 24 25 21 19 17 15 15 15 14 13 12
Wind_Direction
344 341 339 337 335 332 328 324 321 318 316 317 318 316 315 316 301 266 251 28 356 325 304 266 254 242 228 242 231 230 247 250 250 255 246 248 266 255 241 236 238 223 248 17 79
342 339 336 334 331 329 326 323 320 316 317 317 313 312 312 316 297 268 74 26 314 310 282 268 245 228 226 234 234 225 238 240 250 259 281 261 260 265 240 229 248 215 215 202 188
340 338 336 334 331 328 325 323 320 317 314 313 311 309 307 309 276 83 130 274 295 294 278 268 271 268 235 229 225 241 241 249 248 248 257 263 256 262 266 247 225 232 199 202 161
341 338 336 333 330 327 325 323 319 316 316 311 308 305 303 279 5 77 142 284 286 278 274 263 242 239 243 236 236 232 241 250 259 271 275 245 261 268 271 259 255 246 219 186 171
339 336 334 332 328 325 323 323 320 316 314 306 305 303 292 215 50 118 215 224 259 285 277 278 262 254 248 244 245 243 247 249 252 256 261 268 237 254 255 262 266 263 262 210 214
341 338 334 331 328 324 321 317 313 310 306 298 303 301 254 197 323 311 318 294 267 306 314 271 271 271 280 268 252 258 252 252 254 252 249 249 256 253 250 253 259 254 256 247 236
337 337 334 332 329 325 321 319 312 301 292 280 286 276 275 43 315 324 295 310 312 297 292 311 309 274 271 254 248 262 264 266 261 244 248 256 252 243 253 253 248 242 247 252 258
336 335 333 329 326 322 319 315 309 295 268 252 252 267 302 84 339 336 315 320 294 244 262 282 288 281 272 271 276 278 265 251 242 247 249 245 253 249 244 250 248 248 245 243 238
337 336 334 330 327 322 318 311 305 253 207 211 229 230 179 135 308 338 313 319 315 292 285 259 273 275 268 248 254 244 251 248 256 243 238 234 249 249 252 252 246 240 246 243 242
335 333 331 328 324 319 316 298 239 191 205 208 258 248 196 350 337 304 287 302 298 301 282 234 260 249 243 235 248 255 244 247 253 256 246 230 237 244 249 251 248 255 259 254 242
335 332 328 325 321 313 314 224 209 198 224 296 318 292 291 340 296 308 10 297 278 265 272 285 286 259 277 283 280 281 274 277 278 275 244 252 258 246 240 236 249 255 251 229 244
335 331 326 322 315 309 292 347 39 342 297 272 257 264 270 307 292 322 277 309 304 295 299 275 253 262 260 269 278 279 279 273 275 271 279 273 267 265 260 246 247 245 246 253 249
335 331 322 315 315 287 304 28 330 324 264 135 224 242 262 254 307 300 304 305 284 287 295 295 300 308 289 274 270 271 266 274 282 287 274 266 256 264 265 257 256 252 251 253 253
329 332 321 311 289 338 196 3 297 336 269 133 190 152 229 296 271 324 284 284 282 289 300 290 290 270 274 269 269 271 269 273 276 268 260 255 261 249 245 249 251 251 246 249 255
332 333 324 263 323 269 7 325 329 233 265 111 144 59 253 270 314 277 357 275 278 295 293 293 293 285 278 276 279 276 277 275 267 263 267 253 260 254 245 244 240 240 241 241 241
333 334 332 186 234 19 326 334 245 231 352 163 271 256 291 300 290 277 276 240 250 257 257 277 337 287 311 330 298 289 282 271 262 258 251 252 249 251 246 249 259 258 258 256 247
331 328 279 306 3 345 317 254 241 279 117 110 324 314 311 292 306 300 308 294 299 321 307 314 306 238 248 321 292 255 258 260 250 241 253 249 251 246 256 243 249 263 264 241 262
324 321 195 296 312 308 279 256 304 321 336 1 311 302 273 360 317 300 295 290 308 285 305 336 307 325 318 289 301 282 251 244 262 260 257 320 258 245 248 255 256 270 281 275 256
313 210 233 113 303 289 271 260 318 10 2 323 308 300 331 269 249 290 298 330 320 348 319 304 307 318 299 280 296 276 251 254 270 281 269 271 271 275 240 249 250 252 242 219 276
311 275 172 344 266 276 258 268 293 18 310 303 295 307 315 321 310 320 311 25 277 279 292 294 294 303 295 287 246 252 282 260 237 261 262 265 262 259 202 231 217 229 161 281 266
255 269 91 308 267 245 275 315 335 340 315 301 317 309 306 316 308 309 304 309 334 331 311 301 296 290 291 262 278 247 245 184 263 230 273 269 276 353 237 202 217 199 97 319 306
294 277 86 300 256 206 264 12 319 284 259 268 286 305 299 318 308 300 297 310 314 326 312 306 288 286 279 283 216 263 266 314 234 290 264 278 285 309 298 182 198 107 72 332 329
308 292 132 273 311 330 317 309 266 290 292 311 278 295 302 300 298 281 296 311 311 314 329 1 284 304 291 245 32 354 311 281 284 270 263 271 278 316 324 103 113 118 18 335 334
289 296 163 134 148 302 325 310 314 227 288 295 310 295 288 291 296 276 289 302 298 286 287 294 260 257 271 290 233 232 231 254 275 262 276 260 258 295 308 310 185 62 37 327 315
280 46 15 309 338 329 300 300 294 296 255 273 284 298 303 302 304 295 301 315 309 298 280 207 266 273 272 277 278 277 283 270 266 270 267 285 284 282 238 282 302 330 318 317 311
330 345 347 291 283 281 291 302 314 329 327 309 293 310 308 281 281 291 295 296 293 298 300 240 275 289 288 279 267 263 262 257 259 268 273 274 277 276 262 265 277 283 293 296 307
14 324 311 299 292 288 336 317 312 327 295 294 318 306 288 293 303 296 284 274 267 241 270 261 282 288 280 276 286 269 271 266 261 262 261 266 272 274 277 279 283 291 282 281 285